Funds performance table by strategy

help icon
fund name 1 mth 3 mth 12 mthsort icon ytd Inception Net assets Return Date
Fidelity Advisor Freedom 2035® I 2% 3% 17% 6% 6% - 2014-08-31
UBS Global Emerging Markets Opp I-X EUR 4% 13% 17% 15% 2% 1432M 2014-08-31
Baird SmallCap Value Institutional 6% 4% 17% 2% 18% - 2014-08-31
Voya Small Company I 4% 3% 17% 2% 11% - 2014-08-31
Semper MIDAS Fund 1% 2% 17% 9% 17% - 2014-07-31
FlexShares Mstar DevMks exUS FctTilt ETF 0% 0% 17% 3% 15% - 2014-08-31
Commerzbank ETN 1x DJIAF Daily Long 5% 6% 17% 9% 18% - 2014-08-31
Aramus (CH) Japan Inc 2% 24% 17% 12% -2% 1410M 2013-02-28
Vltava Sicav 1% 0% 17% 6% 1% - 2014-07-31
Eurizon EasyFund Equity Euro LTE Z 1% -2% 17% 3% 0% 131M 2014-08-31
CFS FC W PSup-CFS W Equity Income 3% 0% 17% 8% 4% - 2013-07-31
CF KB Enterprise Equity Income C Inc 3% 3% 17% 2% 6% 103M 2014-02-28
MFS® Lifetime® 2050 I 2% 1% 17% 5% 13% - 2014-08-31
AMP Capital WS Australian Share A 1% 6% 17% 12% 9% 5M 2014-08-31
Swisscanto (CH) Inst S2 Eq Inter AST 2% 5% 17% 8% 2% 842M 2014-08-31
Swisscanto (CH) Inst S2 Eq Inter AST BVG 2% 5% 17% 8% 0% 842M 2014-08-31
ComStage iBoxx€ Sov Grmny Cpd 10+TR ETF 5% 8% 17% 18% 9% 144M 2014-08-31
Terra Capital Ord 0% 0% 17% 10% 5% - 2014-08-31
BlackRock Lifepath Index 2035 Instl 2% 2% 17% 7% 9% - 2014-08-31
PIMCO Intl StksPLUS® AR Strat (USD-Hg) P 1% 1% 17% 4% 16% - 2014-08-31
SEI Defensive Strategy Allc A (SAAT) 2% 2% 17% 10% 7% - 2014-08-31
Ampersand Momentum Equity FoF B1 -1% 2% 17% 10% 14% 500M 2014-08-31
Lyxor ETF DJ Global Titans 50 D-USD A/I 2% 1% 17% 5% 13% 49M 2014-08-31
KBI Instl GESS I EUR 4% 4% 17% 6% 12% - 2014-08-31
FTSE Environmntl Opp 100 THEAM EasyETF $ 1% 0% 17% 1% 7% 12M 2014-08-31
Broadwalk Select Services Fund Limited 0% 1% 17% 4% 17% 40M 2014-08-31
MFS® Meridian Europ Value Z1 EUR 3% 1% 17% 8% 6% 3272M 2014-08-31
Invesco Van Kampen Intl Gr Y 5% 8% 17% 9% 6% - 2011-04-30
Fidelity AW America L 5% 7% 17% 5% 3% 62M 2013-01-31
WestLB Me Co Fd Glbl Hi Yld Bd rf-B 0% 0% 17% 13% 12% 69M 2012-10-31

All our data is licensed from Morningstar UK Ltd. Important legal information